This is the latest recevied weather packets stored in our database for station/object K0WXC-1. If no packets are shown the sender has not sent any weather packets the latest 1 day(s).
| Time | Temp. | Humidity | Pressure | Rain* | Wind** | Luminosity | Snow |
|---|---|---|---|---|---|---|---|
| 1778051188 | 8.89° C | 55% | 1000.4 hPa | 0 mm | 0.45 m/s, 145° | - | - |
| 1778051068 | 8.89° C | 53% | 1000.6 hPa | 0 mm | 0.45 m/s, 222° | - | - |
| 1778051008 | 8.89° C | 53% | 1000.6 hPa | 0 mm | 0.45 m/s, 222° | - | - |
| 1778050948 | 8.89° C | 53% | 1000.6 hPa | 0 mm | 0.45 m/s, 222° | - | - |
| 1778050888 | 8.89° C | 53% | 1000.6 hPa | 0 mm | 0.45 m/s, 222° | - | - |
| 1778050828 | 8.89° C | 54% | 1000.7 hPa | 0 mm | 0.45 m/s, 134° | - | - |
| 1778050708 | 8.89° C | 54% | 1000.7 hPa | 0 mm | 0.45 m/s, 134° | - | - |
| 1778050588 | 8.89° C | 54% | 1000.7 hPa | 0 mm | 0.45 m/s, 134° | - | - |
| 1778050528 | 8.89° C | 55% | 1000.9 hPa | 0 mm | 0.45 m/s, 126° | - | - |
| 1778050468 | 8.89° C | 55% | 1000.9 hPa | 0 mm | 0.45 m/s, 126° | - | - |
| 1778050408 | 8.89° C | 55% | 1000.9 hPa | 0 mm | 0.45 m/s, 126° | - | - |
| 1778050288 | 8.89° C | 55% | 1000.9 hPa | 0 mm | 0.45 m/s, 126° | - | - |
| 1778050228 | 8.89° C | 53% | 1000.7 hPa | 0 mm | 0.89 m/s, 256° | - | - |
| 1778050168 | 8.89° C | 53% | 1000.7 hPa | 0 mm | 0.89 m/s, 256° | - | - |
| 1778050108 | 8.89° C | 53% | 1000.7 hPa | 0 mm | 0.89 m/s, 256° | - | - |
| 1778050048 | 8.89° C | 53% | 1000.7 hPa | 0 mm | 0.89 m/s, 256° | - | - |
| 1778049988 | 8.89° C | 53% | 1000.7 hPa | 0 mm | 0.89 m/s, 256° | - | - |
| 1778049808 | 8.89° C | 53% | 1000.7 hPa | 0 mm | 1.34 m/s, 307° | - | - |
| 1778049748 | 8.89° C | 53% | 1000.7 hPa | 0 mm | 1.34 m/s, 307° | - | - |
| 1778049688 | 8.89° C | 53% | 1000.7 hPa | 0 mm | 1.34 m/s, 307° | - | - |
| 1778049568 | 8.89° C | 55% | 1000.4 hPa | 0 mm | 0.89 m/s, 271° | - | - |
| 1778049508 | 8.89° C | 55% | 1000.4 hPa | 0 mm | 0.89 m/s, 271° | - | - |
| 1778049448 | 8.89° C | 55% | 1000.4 hPa | 0 mm | 0.89 m/s, 271° | - | - |
| 1778049328 | 8.89° C | 58% | 1000.5 hPa | 0 mm | 0.45 m/s, 170° | - | - |
| 1778049268 | 8.89° C | 58% | 1000.5 hPa | 0 mm | 0.45 m/s, 170° | - | - |
* Rain latest hour (hover to see other rain measurements)
** Current wind speed in m/s (hover to see current wind gust speed)